{"data":{"norad_id":68264,"epoch":"2026-05-25T04:00:03.998880Z","epoch_age_seconds":57275,"freshness":"FRESH","line1":"1 68264U 26055C   26145.16671295 -.00015667  00000+0 -45360-3 0  9996","line2":"2 68264  53.1602 322.9627 0001006  92.1861 321.3841 15.34393591  5718","mean_motion":15.34393591,"eccentricity":0.0001006,"inclination_deg":53.1602,"raan_deg":322.9627,"arg_perigee_deg":92.1861,"mean_anomaly_deg":321.3841,"bstar":-0.0004536,"rev_number":571,"period_min":93.84815007351,"perigee_km":462.03409872755,"apogee_km":463.41047961653,"semimajor_km":6840.859289172,"source":"CELESTRAK","updated_at":"2026-05-25T13:38:21.890156Z"}}